�N����,����,�~����,�C��,���x,�C��,����,���ϕ���,�ő�u�ԕ���,�ő厞����,���˗�,�I�_���x,�n�����x,�ő啗���N��,DTYPE
"23/12/19","00:10",0.0,2.1,91.9,1021.5,301.0,1.2,1.7,317.4,0.00,1.0,8.4,"00:00:12",1
"23/12/19","00:20",0.0,2.2,92.2,1021.8,330.1,1.2,1.7,346.8,0.00,1.1,8.6,"00:16:18",1
"23/12/19","00:30",0.0,2.2,92.2,1021.8,315.7,1.0,1.7,323.8,0.00,1.1,8.5,"00:20:50",1
"23/12/19","00:40",0.0,2.1,92.3,1021.5,297.6,1.2,1.6,311.3,0.00,1.0,8.6,"00:37:16",1
"23/12/19","00:50",0.0,2.1,92.4,1021.1,315.4,1.6,2.1,324.8,0.00,1.0,8.4,"00:44:00",1
"23/12/19","01:00",0.0,2.3,92.6,1021.3,303.9,1.5,2.1,317.0,0.00,1.3,8.4,"00:59:36",1
"23/12/19","01:10",0.0,2.3,92.6,1021.5,321.5,1.3,1.8,319.9,0.00,1.3,8.4,"01:01:56",1
"23/12/19","01:20",0.0,2.3,92.7,1021.3,305.8,1.1,1.8,315.3,0.00,1.3,8.3,"01:12:00",1
"23/12/19","01:30",0.0,2.3,92.9,1021.3,270.7,1.1,1.6,260.3,0.00,1.3,8.3,"01:27:04",1
"23/12/19","01:40",0.0,2.5,93.0,1021.3,287.1,1.2,1.9,321.7,0.00,1.5,8.3,"01:38:00",1
"23/12/19","01:50",0.0,2.6,93.0,1021.5,305.0,1.0,1.4,312.5,0.00,1.6,8.3,"01:41:20",1
"23/12/19","02:00",0.0,2.6,93.1,1021.5,270.5,1.1,1.4,319.5,0.00,1.6,8.3,"01:59:56",1
"23/12/19","02:10",0.0,2.6,93.2,1021.5,314.5,1.1,1.6,320.8,0.00,1.7,8.4,"02:08:46",1
"23/12/19","02:20",0.0,2.5,93.2,1021.5,316.5,1.5,2.0,343.2,0.00,1.6,8.2,"02:14:52",1
"23/12/19","02:30",0.0,2.4,93.4,1021.3,310.0,1.3,2.0,321.8,0.00,1.5,8.4,"02:27:42",1
"23/12/19","02:40",0.0,2.4,93.5,1021.5,268.4,1.1,1.7,317.3,0.00,1.5,8.2,"02:30:16",1
"23/12/19","02:50",0.0,2.5,93.5,1020.8,272.9,0.8,1.6,320.1,0.00,1.6,8.3,"02:49:26",1
"23/12/19","03:00",0.0,2.6,93.7,1021.3,306.2,1.7,2.4,310.2,0.00,1.7,8.3,"02:57:48",1
"23/12/19","03:10",0.0,2.7,93.7,1021.1,302.5,1.6,2.7,323.7,0.00,1.8,8.3,"03:04:48",1
"23/12/19","03:20",0.0,2.6,93.7,1021.3,255.4,0.7,1.4,318.6,0.00,1.7,8.2,"03:18:32",1
"23/12/19","03:30",0.0,2.7,93.7,1021.1,323.2,1.6,2.5,331.0,0.00,1.8,8.4,"03:21:28",1
"23/12/19","03:40",0.0,2.6,93.8,1021.1,318.6,1.3,2.1,320.5,0.00,1.7,8.3,"03:33:28",1
"23/12/19","03:50",0.0,2.5,93.8,1020.8,301.1,1.3,1.9,315.1,0.00,1.6,8.2,"03:40:16",1
"23/12/19","04:00",0.0,2.5,93.9,1020.6,271.2,1.2,1.3,268.7,0.00,1.7,8.2,"03:51:44",1
"23/12/19","04:10",0.0,2.6,94.0,1021.1,279.0,1.2,1.8,259.4,0.00,1.8,8.2,"04:04:00",1
"23/12/19","04:20",0.0,2.7,94.0,1021.1,303.6,1.2,1.9,322.0,0.00,1.9,8.2,"04:18:00",1
"23/12/19","04:30",0.0,2.7,94.1,1021.1,308.7,1.3,2.0,316.4,0.00,1.9,8.2,"04:26:40",1
"23/12/19","04:40",0.0,2.7,94.1,1020.6,315.7,1.2,1.8,321.3,0.00,1.9,8.3,"04:33:36",1
"23/12/19","04:50",0.0,2.7,94.2,1021.1,303.6,1.3,2.1,334.2,0.00,1.9,8.2,"04:44:48",1
"23/12/19","05:00",0.0,2.7,94.2,1020.6,271.7,1.1,1.3,260.7,0.00,1.9,8.1,"04:50:56",1
"23/12/19","05:10",0.0,2.7,94.3,1020.8,290.9,1.6,2.1,261.5,0.00,1.9,8.1,"05:06:00",1
"23/12/19","05:20",0.0,2.8,94.3,1020.6,286.5,1.3,1.6,314.5,0.00,2.0,8.2,"05:10:40",1
"23/12/19","05:30",0.0,2.8,94.3,1020.8,301.0,1.5,2.1,322.1,0.00,2.0,8.1,"05:24:40",1
"23/12/19","05:40",0.0,2.7,94.3,1020.8,289.7,1.2,1.7,317.9,0.00,1.9,8.2,"05:31:36",1
"23/12/19","05:50",0.0,2.7,94.3,1020.8,249.2,0.5,1.2,297.3,0.00,1.9,8.2,"05:42:16",1
"23/12/19","06:00",0.0,2.7,94.4,1020.6,275.9,0.6,1.1,310.0,0.00,1.9,8.1,"05:57:44",1
"23/12/19","06:10",0.0,2.7,94.4,1020.6,289.4,1.5,2.0,318.2,0.00,1.9,8.1,"06:07:28",1
"23/12/19","06:20",0.0,2.7,94.3,1020.6,316.2,1.6,2.2,338.0,0.00,1.9,8.1,"06:15:28",1
"23/12/19","06:30",0.0,2.5,94.4,1020.6,321.9,1.6,2.2,333.7,0.00,1.7,8.1,"06:20:56",1
"23/12/19","06:40",0.0,2.3,94.5,1020.4,310.2,1.5,1.8,315.7,0.00,1.5,8.1,"06:35:42",1
"23/12/19","06:50",0.0,2.1,94.5,1020.6,296.5,1.5,2.0,313.9,0.00,1.4,8.1,"06:41:36",1
"23/12/19","07:00",0.0,2.1,94.7,1020.8,301.2,1.6,2.2,314.5,0.00,1.4,8.2,"06:51:08",1
"23/12/19","07:10",0.0,1.9,94.7,1020.4,318.6,1.5,2.1,336.3,0.00,1.2,8.0,"07:02:14",1
"23/12/19","07:20",0.0,1.7,94.9,1020.1,292.8,1.5,2.0,321.2,0.00,1.0,7.9,"07:17:38",1
"23/12/19","07:30",0.0,1.6,95.1,1019.9,313.4,1.6,2.2,328.1,0.00,0.9,7.9,"07:20:58",1
"23/12/19","07:40",0.0,1.8,95.2,1019.9,298.5,1.2,1.4,317.7,0.01,1.2,8.1,"07:30:36",1
"23/12/19","07:50",0.0,2.0,95.3,1020.1,286.5,0.8,1.3,315.6,0.03,1.4,7.9,"07:48:34",1
"23/12/19","08:00",0.0,2.4,95.4,1020.4,275.9,1.0,1.7,267.4,0.05,1.8,8.0,"07:59:36",1
"23/12/19","08:10",0.0,3.1,95.4,1020.1,294.6,1.8,2.2,309.4,0.08,2.5,8.0,"08:05:52",1
"23/12/19","08:20",0.0,3.8,95.2,1020.4,314.9,1.5,2.4,311.8,0.11,3.1,8.1,"08:14:56",1
"23/12/19","08:30",0.0,4.0,94.9,1020.4,91.9,0.3,1.2,310.9,0.14,3.3,8.0,"08:21:20",1
"23/12/19","08:40",0.0,4.6,94.8,1020.6,283.1,0.6,1.3,286.2,0.17,3.9,8.0,"08:37:44",1
"23/12/19","08:50",0.0,4.7,93.6,1020.8,281.1,0.6,1.4,318.6,0.14,3.8,7.9,"08:44:24",1
"23/12/19","09:00",0.0,4.9,93.2,1020.6,160.9,0.5,1.0,105.2,0.16,3.9,8.0,"08:52:40",1
"23/12/19","09:10",0.0,5.1,92.1,1020.4,105.4,0.6,1.4,113.7,0.19,4.0,8.1,"09:02:48",1
"23/12/19","09:20",0.0,5.8,90.7,1020.8,299.5,1.1,2.4,312.4,0.20,4.4,8.0,"09:12:16",1
"23/12/19","09:30",0.0,6.2,88.5,1021.3,304.9,1.1,2.1,341.0,0.27,4.5,8.0,"09:26:56",1
"23/12/19","09:40",0.0,6.9,85.8,1021.3,273.1,0.8,1.6,267.2,0.31,4.7,8.1,"09:30:48",1
"23/12/19","09:50",0.0,7.1,81.3,1021.5,227.0,0.7,1.4,165.4,0.30,4.2,8.2,"09:40:50",1
"23/12/19","10:00",0.0,7.5,77.5,1021.3,265.7,0.7,1.6,253.5,0.26,3.9,8.1,"09:50:16",1
"23/12/19","10:10",0.0,7.7,74.6,1021.1,235.3,0.7,1.4,251.9,0.27,3.5,8.2,"10:06:46",1
"23/12/19","10:20",0.0,7.8,72.9,1020.8,190.5,0.7,2.0,137.3,0.33,3.3,8.0,"10:12:22",1
"23/12/19","10:30",0.0,8.4,72.1,1020.4,242.1,0.7,1.7,221.2,0.39,3.7,8.3,"10:27:06",1
"23/12/19","10:40",0.0,8.4,71.4,1020.4,227.2,1.3,1.9,245.7,0.33,3.6,8.3,"10:30:02",1
"23/12/19","10:50",0.0,8.8,70.7,1020.4,220.7,1.1,2.4,249.5,0.36,3.8,8.2,"10:40:08",1
"23/12/19","11:00",0.0,8.6,69.2,1020.1,211.5,1.2,2.5,218.2,0.29,3.3,8.4,"10:57:34",1
"23/12/19","11:10",0.0,8.9,69.7,1019.9,235.1,1.2,3.3,230.6,0.27,3.7,8.7,"11:00:56",1
"23/12/19","11:20",0.0,8.5,67.6,1019.7,218.0,1.2,3.7,249.5,0.23,2.9,8.7,"11:10:20",1
"23/12/19","11:30",0.0,8.4,67.5,1019.2,215.5,1.5,2.6,251.5,0.18,2.8,8.7,"11:20:16",1
"23/12/19","11:40",0.0,8.6,68.1,1019.2,211.4,0.7,2.0,138.2,0.20,3.1,8.6,"11:30:44",1
"23/12/19","11:50",0.0,9.0,67.3,1018.7,203.0,1.0,1.7,170.0,0.27,3.3,8.8,"11:40:30",1
"23/12/19","12:00",0.0,8.9,66.4,1018.7,181.3,0.7,1.9,120.5,0.21,3.0,8.9,"11:59:18",1
"23/12/19","12:10",0.0,9.2,65.4,1018.5,241.8,0.8,1.9,213.6,0.23,3.1,8.8,"12:09:46",1
"23/12/19","12:20",0.0,9.2,64.8,1018.2,259.0,1.1,2.6,249.7,0.23,3.0,9.1,"12:11:40",1
"23/12/19","12:30",0.0,9.4,63.2,1017.8,341.4,1.0,1.8,327.3,0.20,2.8,9.2,"12:23:50",1
"23/12/19","12:40",0.0,9.4,62.4,1017.8,330.1,1.2,2.5,299.8,0.17,2.6,9.0,"12:39:58",1
"23/12/19","12:50",0.0,9.2,62.8,1017.5,300.7,1.5,3.1,312.7,0.15,2.5,9.1,"12:40:20",1
"23/12/19","13:00",0.0,9.3,63.1,1017.5,341.5,1.0,2.4,346.6,0.15,2.7,9.1,"12:52:00",1
"23/12/19","13:10",0.0,9.5,63.0,1017.3,235.7,0.5,1.2,258.0,0.17,2.9,9.2,"13:06:56",1
"23/12/19","13:20",0.0,9.7,63.2,1017.1,260.7,0.7,1.6,239.7,0.19,3.1,9.2,"13:18:00",1
"23/12/19","13:30",0.0,9.8,61.0,1017.1,199.8,0.3,1.0,133.3,0.20,2.7,9.2,"13:20:08",1
"23/12/19","13:40",0.0,9.8,61.2,1017.1,241.4,1.1,2.0,232.1,0.20,2.7,9.4,"13:33:34",1
"23/12/19","13:50",0.0,9.7,61.0,1017.1,254.2,1.0,1.8,244.8,0.11,2.6,9.2,"13:40:42",1
"23/12/19","14:00",0.0,9.6,60.0,1016.8,255.5,0.7,1.9,248.0,0.10,2.3,9.3,"13:50:42",1
"23/12/19","14:10",0.0,9.6,59.2,1016.6,255.1,0.7,1.6,230.7,0.10,2.1,9.6,"14:05:22",1
"23/12/19","14:20",0.0,9.5,58.7,1016.8,290.4,1.3,3.1,235.0,0.09,1.9,9.6,"14:12:56",1
"23/12/19","14:30",0.0,9.6,57.4,1017.1,328.3,1.7,3.3,339.8,0.10,1.6,9.6,"14:27:10",1
"23/12/19","14:40",0.0,9.7,58.2,1016.6,290.8,2.0,5.4,353.3,0.13,1.9,9.6,"14:34:56",1
"23/12/19","14:50",0.0,9.7,57.9,1016.8,273.4,1.6,2.5,251.9,0.12,1.9,9.4,"14:49:08",1
"23/12/19","15:00",0.0,9.5,56.7,1016.4,273.7,1.8,3.3,245.6,0.09,1.4,9.6,"14:56:54",1
"23/12/19","15:10",0.0,9.5,57.3,1016.4,268.0,1.1,2.7,248.2,0.06,1.5,9.7,"15:09:12",1
"23/12/19","15:20",0.0,9.3,57.7,1016.4,250.8,1.0,2.1,290.6,0.03,1.4,9.6,"15:17:46",1
"23/12/19","15:30",0.0,9.2,57.4,1016.6,344.3,0.7,1.8,330.7,0.01,1.3,9.6,"15:24:56",1
"23/12/19","15:40",0.0,9.2,58.1,1016.8,270.4,0.6,1.3,263.2,0.01,1.4,9.6,"15:30:02",1
"23/12/19","15:50",0.0,9.1,59.0,1016.6,223.9,1.3,2.8,240.0,0.01,1.6,9.6,"15:42:00",1
"23/12/19","16:00",0.0,9.1,59.2,1016.6,329.8,1.0,1.7,323.0,0.00,1.6,9.5,"15:59:28",1
"23/12/19","16:10",0.0,9.2,62.7,1016.6,321.6,1.3,1.9,327.8,0.00,2.5,9.8,"16:09:36",1
"23/12/19","16:20",0.0,8.8,62.5,1016.8,320.8,1.8,2.7,336.8,0.00,2.1,9.8,"16:15:12",1
"23/12/19","16:30",0.0,8.6,61.6,1016.4,305.9,2.1,3.4,328.8,0.00,1.7,9.5,"16:28:24",1
"23/12/19","16:40",0.0,8.4,60.9,1016.6,323.4,3.1,4.5,328.5,0.00,1.3,9.8,"16:35:12",1
"23/12/19","16:50",0.0,8.4,62.0,1016.6,283.7,1.8,3.3,337.8,0.00,1.6,9.7,"16:40:32",1
"23/12/19","17:00",0.0,8.2,63.1,1016.6,264.2,2.0,3.5,258.4,0.00,1.6,9.7,"16:58:16",1
"23/12/19","17:10",0.0,8.2,64.1,1016.8,262.4,2.1,3.4,259.4,0.00,1.9,9.6,"17:09:52",1
"23/12/19","17:20",0.0,8.1,65.2,1016.8,262.5,2.3,3.7,249.8,0.00,2.0,9.6,"17:10:16",1
"23/12/19","17:30",0.0,7.9,66.7,1017.1,262.4,2.7,4.7,261.4,0.00,2.1,9.7,"17:23:52",1
"23/12/19","17:40",0.0,7.8,67.6,1016.8,266.7,2.6,4.7,249.4,0.00,2.2,9.5,"17:38:16",1
"23/12/19","17:50",0.0,7.7,68.4,1016.6,264.1,2.3,3.7,274.9,0.00,2.3,9.5,"17:44:16",1
"23/12/19","18:00",0.0,7.6,69.2,1016.8,272.4,2.3,4.2,252.5,0.00,2.4,9.6,"17:53:12",1
"23/12/19","18:10",0.0,7.5,69.9,1016.6,281.3,2.1,3.3,268.3,0.00,2.4,9.7,"18:05:12",1
"23/12/19","18:20",0.0,7.4,70.5,1016.6,279.1,2.2,3.7,263.8,0.00,2.4,9.6,"18:15:04",1
"23/12/19","18:30",0.0,7.3,71.0,1017.1,283.6,2.3,5.0,256.2,0.00,2.4,9.6,"18:28:16",1
"23/12/19","18:40",0.0,7.3,71.4,1017.1,299.2,2.7,3.9,332.4,0.00,2.5,9.6,"18:34:16",1
"23/12/19","18:50",0.0,7.2,71.7,1017.1,308.8,2.2,4.0,270.7,0.00,2.5,9.5,"18:49:52",1
"23/12/19","19:00",0.0,7.0,72.1,1016.8,304.6,2.6,3.9,312.3,0.00,2.4,9.4,"18:54:56",1
"23/12/19","19:10",0.0,6.9,72.4,1016.6,311.0,3.0,4.1,312.7,0.00,2.3,9.5,"19:08:08",1
"23/12/19","19:20",0.0,6.8,72.4,1017.1,301.4,3.1,5.4,307.5,0.00,2.2,9.6,"19:12:32",1
"23/12/19","19:30",0.0,6.8,72.4,1017.1,296.3,2.7,4.4,328.6,0.00,2.2,9.6,"19:26:40",1
"23/12/19","19:40",0.0,6.7,72.4,1016.6,298.0,2.7,3.6,331.8,0.00,2.1,9.4,"19:34:08",1
"23/12/19","19:50",0.0,6.7,72.3,1017.1,297.2,2.3,2.9,305.2,0.00,2.1,9.5,"19:41:44",1
"23/12/19","20:00",0.0,6.7,72.3,1016.8,308.4,2.3,3.7,308.2,0.00,2.1,9.3,"19:57:04",1
"23/12/19","20:10",0.0,6.6,72.6,1016.8,316.0,2.3,3.3,315.2,0.00,2.1,9.4,"20:02:16",1
"23/12/19","20:20",0.0,6.5,73.0,1016.4,310.5,2.3,3.4,321.0,0.00,2.1,9.4,"20:17:12",1
"23/12/19","20:30",0.0,6.4,73.2,1016.8,306.3,2.3,3.3,326.2,0.00,2.0,9.4,"20:27:20",1
"23/12/19","20:40",0.0,6.3,73.4,1016.4,301.8,1.8,2.7,317.5,0.00,1.9,9.6,"20:33:04",1
"23/12/19","20:50",0.0,6.3,73.6,1016.6,313.0,2.7,3.6,321.3,0.00,2.0,9.3,"20:45:20",1
"23/12/19","21:00",0.0,6.2,73.8,1016.6,306.3,1.7,2.7,318.3,0.00,1.9,9.4,"20:57:36",1
"23/12/19","21:10",0.0,6.2,74.3,1016.1,310.2,1.5,2.8,321.8,0.00,2.0,9.2,"21:07:52",1
"23/12/19","21:20",0.0,5.9,74.9,1015.9,314.5,1.7,2.6,321.2,0.00,1.8,9.3,"21:15:44",1
"23/12/19","21:30",0.0,5.7,75.5,1015.6,305.1,1.1,2.0,341.7,0.00,1.8,9.2,"21:20:48",1
"23/12/19","21:40",0.0,5.3,75.9,1015.9,298.3,1.1,2.2,328.6,0.00,1.4,9.6,"21:38:20",1
"23/12/19","21:50",0.0,5.3,77.0,1015.6,333.7,2.0,2.8,330.2,0.00,1.6,9.4,"21:48:08",1
"23/12/19","22:00",0.0,5.1,78.3,1015.6,323.7,1.8,2.2,319.5,0.00,1.7,9.4,"21:52:38",1
"23/12/19","22:10",0.0,5.1,79.5,1015.6,305.4,2.0,2.7,317.2,0.00,1.9,9.3,"22:01:52",1
"23/12/19","22:20",0.0,5.1,80.5,1015.6,298.0,2.1,2.2,302.5,0.00,2.1,9.4,"22:18:54",1
"23/12/19","22:30",0.0,5.1,81.3,1015.6,300.2,1.8,2.2,310.5,0.00,2.2,9.3,"22:23:34",1
"23/12/19","22:40",0.0,5.1,82.1,1015.6,318.2,2.7,3.7,319.6,0.00,2.3,9.1,"22:34:46",1
"23/12/19","22:50",0.0,5.0,82.7,1015.2,306.0,2.1,2.6,313.2,0.00,2.3,9.2,"22:42:20",1
"23/12/19","23:00",0.0,5.0,83.4,1015.4,310.2,2.3,3.9,323.3,0.00,2.5,9.1,"22:59:42",1
"23/12/19","23:10",0.0,4.9,83.9,1015.2,303.7,2.3,2.8,325.1,0.00,2.5,9.1,"23:09:14",1
"23/12/19","23:20",0.0,4.9,84.2,1015.4,309.7,2.1,2.9,311.8,0.00,2.5,9.2,"23:10:52",1
"23/12/19","23:30",0.0,4.8,84.5,1014.9,299.6,1.1,2.1,328.5,0.00,2.5,9.1,"23:29:50",1
"23/12/19","23:40",0.0,4.8,84.8,1014.9,322.2,2.2,2.7,320.6,0.00,2.5,8.9,"23:34:06",1
"23/12/19","23:50",0.0,4.6,85.2,1014.7,324.8,1.7,2.4,331.8,0.00,2.4,9.1,"23:41:56",1
"23/12/19","24:00",0.0,4.5,85.7,1014.5,286.9,1.6,1.8,313.4,0.00,2.4,9.0,"23:50:26",1
